カタログに戻る

DMSP 5D-2 F13 DEB

運用中SSO
NORAD 40450·DEBRIS·🇺🇸 United States

打ち上げ Mar 24, 1995 から Vandenberg Space Force Base

Loading…

次のパス (今後24時間)

TLE

最新Source: Space-Track

元期: Sep 14, 2026, 12:15 UTC

1 40450U 95015BC  26257.51055276  .00001266  00000-0  48396-3 0  9994
2 40450  98.6313 284.2982 0013914  70.9576 289.3113 14.32405277599254

AllMySatでDMSP 5D-2 F13 DEBをリアルタイム追跡

Download on the App Store